| time (UTC) | temp F | wind direction | speed MPH | gust MPH | rain 1hr in | rain 24hr in | rain mn in | humidity % | barometer mb |
| 20260506135052 | 70 | 155 | 1.0 | 4.0 | 0.00 | 0.00 | 0.00 | 73 | 1011.0 |
| 20260506134555 | 69 | 48 | 0.0 | 4.0 | 0.00 | 0.00 | 0.00 | 73 | 1011.0 |
| 20260506134055 | 69 | 150 | 1.0 | 9.0 | 0.00 | 0.00 | 0.00 | 73 | 1011.1 |
| 20260506133553 | 69 | 248 | 1.0 | 9.0 | 0.00 | 0.00 | 0.00 | 74 | 1011.0 |
| 20260506133057 | 68 | 103 | 1.0 | 8.0 | 0.00 | 0.00 | 0.00 | 74 | 1011.1 |
| 20260506132554 | 69 | 344 | 3.0 | 8.0 | 0.00 | 0.00 | 0.00 | 73 | 1011.0 |
| 20260506132054 | 69 | 152 | 1.0 | 5.0 | 0.00 | 0.00 | 0.00 | 73 | 1011.1 |
| 20260506131602 | 69 | 174 | 1.0 | 5.0 | 0.00 | 0.00 | 0.00 | 74 | 1011.2 |
| 20260506131054 | 68 | 159 | 1.0 | 6.0 | 0.00 | 0.00 | 0.00 | 75 | 1011.1 |
| 20260506130554 | 68 | 193 | 1.0 | 6.0 | 0.00 | 0.00 | 0.00 | 75 | 1011.2 |
| 20260506130126 | 68 | 53 | 0.0 | 5.0 | 0.00 | 0.00 | 0.00 | 75 | 1011.1 |
| 20260506125554 | 67 | 43 | 0.0 | 5.0 | 0.00 | 0.00 | 0.00 | 76 | 1011.3 |
| 20260506125056 | 67 | 62 | 1.0 | 4.0 | 0.00 | 0.00 | 0.00 | 76 | 1011.3 |
| 20260506124600 | 67 | 188 | 1.0 | 3.0 | 0.00 | 0.00 | 0.00 | 76 | 1011.4 |
| 20260506124054 | 67 | 160 | 1.0 | 4.0 | 0.00 | 0.00 | 0.00 | 76 | 1011.5 |
| 20260506123553 | 66 | 224 | 1.0 | 5.0 | 0.00 | 0.00 | 0.00 | 76 | 1011.5 |
| 20260506123054 | 66 | 145 | 1.0 | 5.0 | 0.00 | 0.00 | 0.00 | 77 | 1011.4 |
| 20260506122554 | 66 | 146 | 1.0 | 6.0 | 0.00 | 0.00 | 0.00 | 77 | 1011.5 |
| 20260506122053 | 66 | 27 | 1.0 | 6.0 | 0.00 | 0.00 | 0.00 | 77 | 1011.5 |
| 20260506121554 | 66 | 227 | 0.0 | 3.0 | 0.00 | 0.00 | 0.00 | 77 | 1011.6 |
| 20260506121058 | 65 | 231 | 1.0 | 4.0 | 0.00 | 0.00 | 0.00 | 77 | 1011.6 |
| 20260506120554 | 65 | 131 | 1.0 | 4.0 | 0.00 | 0.00 | 0.00 | 78 | 1011.4 |
| 20260506120106 | 65 | 232 | 1.0 | 3.0 | 0.00 | 0.00 | 0.00 | 78 | 1011.5 |
| 20260506115555 | 65 | 65 | 0.0 | 5.0 | 0.00 | 0.00 | 0.00 | 78 | 1011.5 |
| 20260506115054 | 65 | 122 | 0.0 | 5.0 | 0.00 | 0.00 | 0.00 | 78 | 1011.4 |
| 20260506114556 | 65 | 265 | 1.0 | 4.0 | 0.00 | 0.00 | 0.00 | 78 | 1011.3 |
| 20260506114054 | 65 | 220 | 1.0 | 4.0 | 0.00 | 0.00 | 0.00 | 78 | 1011.3 |
| 20260506113553 | 65 | 50 | 1.0 | 4.0 | 0.00 | 0.00 | 0.00 | 78 | 1011.3 |
| 20260506113100 | 65 | 115 | 0.0 | 4.0 | 0.00 | 0.00 | 0.00 | 78 | 1011.3 |
| 20260506112555 | 65 | 243 | 0.0 | 4.0 | 0.00 | 0.00 | 0.00 | 78 | 1011.3 |
| 20260506112054 | 64 | 163 | 1.0 | 4.0 | 0.00 | 0.00 | 0.00 | 79 | 1011.2 |
| 20260506111554 | 64 | 67 | 1.0 | 4.0 | 0.00 | 0.00 | 0.00 | 79 | 1011.2 |
| 20260506111054 | 64 | 207 | 1.0 | 6.0 | 0.00 | 0.00 | 0.00 | 79 | 1011.2 |
| 20260506110553 | 64 | 197 | 2.0 | 6.0 | 0.00 | 0.00 | 0.00 | 79 | 1011.2 |
| 20260506110106 | 64 | 212 | 1.0 | 4.0 | 0.00 | 0.00 | 0.00 | 79 | 1011.3 |
| 20260506105553 | 64 | 170 | 1.0 | 3.0 | 0.00 | 0.00 | 0.00 | 80 | 1011.2 |
| 20260506105053 | 63 | 66 | 1.0 | 4.0 | 0.00 | 0.00 | 0.00 | 80 | 1011.2 |
| 20260506104559 | 63 | 232 | 1.0 | 4.0 | 0.00 | 0.00 | 0.00 | 80 | 1011.1 |
| 20260506104052 | 63 | 109 | 1.0 | 4.0 | 0.00 | 0.00 | 0.00 | 81 | 1011.0 |
| 20260506103552 | 63 | 160 | 1.0 | 4.0 | 0.00 | 0.00 | 0.00 | 81 | 1011.1 |
| 20260506103100 | 63 | 166 | 0.0 | 3.0 | 0.00 | 0.00 | 0.00 | 81 | 1011.2 |
| 20260506102553 | 63 | 180 | 1.0 | 3.0 | 0.00 | 0.00 | 0.00 | 81 | 1011.2 |
| 20260506102053 | 63 | 172 | 0.0 | 3.0 | 0.00 | 0.00 | 0.00 | 81 | 1011.3 |
| 20260506101620 | 63 | 130 | 1.0 | 3.0 | 0.00 | 0.00 | 0.00 | 82 | 1011.2 |
| 20260506101053 | 63 | 148 | 0.0 | 2.0 | 0.00 | 0.00 | 0.00 | 82 | 1011.3 |
| 20260506100553 | 63 | 142 | 0.0 | 2.0 | 0.00 | 0.00 | 0.00 | 82 | 1011.2 |
| 20260506100119 | 63 | 169 | 1.0 | 3.0 | 0.00 | 0.00 | 0.00 | 82 | 1011.3 |
| 20260506095556 | 63 | 203 | 1.0 | 3.0 | 0.00 | 0.00 | 0.00 | 82 | 1011.3 |
| 20260506095053 | 63 | 127 | 0.0 | 4.0 | 0.00 | 0.00 | 0.00 | 82 | 1011.1 |
| 20260506094553 | 63 | 223 | 0.0 | 5.0 | 0.00 | 0.00 | 0.00 | 82 | 1011.1 |
| 20260506094052 | 63 | 217 | 1.0 | 5.0 | 0.00 | 0.00 | 0.00 | 81 | 1010.9 |
| 20260506093552 | 63 | 70 | 1.0 | 5.0 | 0.00 | 0.00 | 0.00 | 82 | 1010.9 |
| 20260506093100 | 63 | 151 | 1.0 | 5.0 | 0.00 | 0.00 | 0.00 | 82 | 1011.0 |
| 20260506092553 | 63 | 340 | 1.0 | 5.0 | 0.00 | 0.00 | 0.00 | 82 | 1010.9 |
| 20260506092053 | 63 | 238 | 0.0 | 4.0 | 0.00 | 0.00 | 0.00 | 82 | 1011.1 |
| 20260506091555 | 63 | 169 | 1.0 | 5.0 | 0.00 | 0.00 | 0.00 | 82 | 1011.1 |
| 20260506091055 | 63 | 155 | 1.0 | 5.0 | 0.00 | 0.00 | 0.00 | 82 | 1011.0 |
| 20260506090552 | 64 | 172 | 1.0 | 4.0 | 0.00 | 0.00 | 0.00 | 81 | 1011.0 |
| 20260506090058 | 64 | 143 | 1.0 | 5.0 | 0.00 | 0.00 | 0.00 | 81 | 1011.1 |
| 20260506085555 | 64 | 113 | 1.0 | 7.0 | 0.00 | 0.00 | 0.00 | 81 | 1011.1 |
| 20260506085057 | 64 | 227 | 2.0 | 7.0 | 0.00 | 0.00 | 0.00 | 81 | 1011.0 |
| 20260506084621 | 64 | 158 | 1.0 | 5.0 | 0.00 | 0.00 | 0.00 | 81 | 1011.2 |
| 20260506084054 | 64 | 220 | 1.0 | 5.0 | 0.00 | 0.00 | 0.00 | 81 | 1011.1 |
| 20260506083555 | 64 | 155 | 1.0 | 5.0 | 0.00 | 0.00 | 0.00 | 81 | 1011.2 |
| 20260506083056 | 64 | 101 | 1.0 | 5.0 | 0.00 | 0.00 | 0.00 | 81 | 1011.3 |
| 20260506082555 | 64 | 176 | 1.0 | 5.0 | 0.00 | 0.00 | 0.00 | 82 | 1011.3 |
| 20260506082056 | 64 | 195 | 1.0 | 5.0 | 0.00 | 0.00 | 0.00 | 82 | 1011.4 |
| 20260506081557 | 64 | 189 | 1.0 | 5.0 | 0.00 | 0.00 | 0.00 | 82 | 1011.3 |
| 20260506081054 | 64 | 169 | 1.0 | 4.0 | 0.00 | 0.00 | 0.00 | 82 | 1011.4 |
| 20260506080555 | 64 | 188 | 1.0 | 3.0 | 0.00 | 0.00 | 0.00 | 82 | 1011.4 |
| 20260506073056 | 65 | 154 | 1.0 | 3.0 | 0.00 | 0.00 | 0.00 | 81 | 1011.4 |
| 20260506072554 | 65 | 232 | 1.0 | 7.0 | 0.00 | 0.00 | 0.00 | 80 | 1011.4 |
| 20260506072054 | 65 | 68 | 1.0 | 7.0 | 0.00 | 0.00 | 0.00 | 80 | 1011.4 |
| 20260506071559 | 65 | 226 | 1.0 | 4.0 | 0.00 | 0.00 | 0.00 | 80 | 1011.4 |
| 20260506071055 | 65 | 232 | 1.0 | 4.0 | 0.00 | 0.00 | 0.00 | 80 | 1011.4 |
| 20260506070553 | 66 | 0 | 1.0 | 4.0 | 0.00 | 0.00 | 0.00 | 80 | 1011.4 |
| 20260506062053 | 66 | 152 | 1.0 | 5.0 | 0.00 | 0.00 | 0.00 | 79 | 1011.5 |
| 20260506061554 | 67 | 125 | 0.0 | 4.0 | 0.00 | 0.00 | 0.00 | 79 | 1011.5 |
| 20260506061056 | 67 | 210 | 1.0 | 5.0 | 0.00 | 0.00 | 0.00 | 79 | 1011.5 |
| 20260506060556 | 67 | 221 | 1.0 | 5.0 | 0.00 | 0.00 | 0.00 | 78 | 1011.5 |
| 20260506051052 | 68 | 0 | 1.0 | 3.0 | 0.00 | 0.00 | 0.00 | 76 | 1011.9 |
| 20260506050553 | 68 | 0 | 0.0 | 2.0 | 0.00 | 0.00 | 0.00 | 77 | 1011.9 |
| 20260506050103 | 68 | 144 | 1.0 | 3.0 | 0.00 | 0.00 | 0.00 | 76 | 1012.0 |
| 20260506045052 | 69 | 53 | 0.0 | 5.0 | 0.00 | 0.00 | 0.00 | 76 | 1012.0 |
| 20260506044704 | 69 | 164 | 1.0 | 5.0 | 0.00 | 0.00 | 0.00 | 76 | 1012.0 |
| 20260506044053 | 68 | 152 | 0.0 | 3.0 | 0.00 | 0.00 | 0.00 | 76 | 1012.1 |
| 20260506043556 | 68 | 178 | 0.0 | 5.0 | 0.00 | 0.00 | 0.00 | 76 | 1012.1 |
| 20260506043108 | 68 | 168 | 1.0 | 5.0 | 0.00 | 0.00 | 0.00 | 77 | 1012.1 |
| 20260506042552 | 68 | 167 | 0.0 | 4.0 | 0.00 | 0.00 | 0.00 | 77 | 1012.0 |
| 20260506042051 | 68 | 145 | 1.0 | 4.0 | 0.00 | 0.00 | 0.00 | 77 | 1012.0 |
| 20260506041605 | 68 | 0 | 0.0 | 3.0 | 0.00 | 0.00 | 0.00 | 77 | 1012.0 |
| 20260506041053 | 68 | 0 | 1.0 | 3.0 | 0.00 | 0.00 | 0.00 | 77 | 1011.9 |
| 20260506040552 | 68 | 143 | 1.0 | 2.0 | 0.00 | 0.00 | 0.00 | 77 | 1011.9 |
| 20260506040057 | 68 | 166 | 1.0 | 3.0 | 0.00 | 0.00 | 0.00 | 77 | 1011.9 |
| 20260506035553 | 68 | 154 | 1.0 | 3.0 | 0.00 | 0.00 | 0.00 | 77 | 1012.0 |
| 20260506035053 | 68 | 141 | 0.0 | 3.0 | 0.00 | 0.00 | 0.00 | 77 | 1011.9 |
| 20260506034624 | 68 | 162 | 0.0 | 4.0 | 0.00 | 0.00 | 0.00 | 77 | 1011.9 |
| 20260506034050 | 68 | 155 | 0.0 | 4.0 | 0.00 | 0.00 | 0.00 | 77 | 1011.9 |
| 20260506033551 | 68 | 198 | 1.0 | 3.0 | 0.00 | 0.00 | 0.00 | 76 | 1011.9 |
| 20260506033104 | 69 | 158 | 1.0 | 6.0 | 0.00 | 0.00 | 0.00 | 76 | 1011.8 |
| 20260506032551 | 69 | 129 | 1.0 | 6.0 | 0.00 | 0.00 | 0.00 | 76 | 1011.9 |
| 20260506032051 | 69 | 0 | 1.0 | 6.0 | 0.00 | 0.00 | 0.00 | 76 | 1011.8 |
| 20260506031553 | 69 | 125 | 1.0 | 3.0 | 0.00 | 0.00 | 0.00 | 76 | 1011.8 |
| 20260506031054 | 69 | 169 | 1.0 | 3.0 | 0.00 | 0.00 | 0.00 | 76 | 1011.9 |
| 20260506030551 | 69 | 0 | 1.0 | 4.0 | 0.00 | 0.00 | 0.00 | 75 | 1011.9 |
| 20260506030100 | 69 | 169 | 1.0 | 4.0 | 0.00 | 0.00 | 0.00 | 75 | 1012.0 |
| 20260506025550 | 69 | 174 | 2.0 | 4.0 | 0.00 | 0.00 | 0.00 | 75 | 1012.0 |
| 20260506025056 | 69 | 169 | 1.0 | 4.0 | 0.00 | 0.00 | 0.00 | 75 | 1012.0 |
| 20260506024557 | 69 | 120 | 1.0 | 4.0 | 0.00 | 0.00 | 0.00 | 75 | 1012.0 |
| 20260506024051 | 69 | 164 | 1.0 | 4.0 | 0.00 | 0.00 | 0.00 | 75 | 1011.9 |
| 20260506023551 | 69 | 155 | 1.0 | 4.0 | 0.00 | 0.00 | 0.00 | 74 | 1012.1 |
| 20260506023113 | 69 | 167 | 1.0 | 4.0 | 0.00 | 0.00 | 0.00 | 74 | 1012.0 |
| 20260506022552 | 69 | 0 | 1.0 | 4.0 | 0.00 | 0.00 | 0.00 | 73 | 1012.0 |
| 20260506022053 | 69 | 84 | 1.0 | 4.0 | 0.00 | 0.00 | 0.00 | 73 | 1012.0 |
| 20260506021556 | 69 | 172 | 1.0 | 4.0 | 0.00 | 0.00 | 0.00 | 73 | 1012.0 |
| 20260506021051 | 69 | 67 | 1.0 | 4.0 | 0.00 | 0.00 | 0.00 | 72 | 1012.0 |
| 20260506020550 | 69 | 162 | 1.0 | 4.0 | 0.00 | 0.00 | 0.00 | 72 | 1012.0 |
| 20260506020056 | 69 | 174 | 1.0 | 4.0 | 0.00 | 0.00 | 0.00 | 71 | 1011.9 |
| 20260506015554 | 69 | 79 | 1.0 | 4.0 | 0.00 | 0.00 | 0.00 | 71 | 1011.8 |
| 20260506015054 | 70 | 162 | 1.0 | 5.0 | 0.00 | 0.00 | 0.00 | 71 | 1011.9 |
| 20260506014603 | 70 | 183 | 2.0 | 5.0 | 0.00 | 0.00 | 0.00 | 70 | 1011.7 |
| 20260506014053 | 70 | 116 | 1.0 | 4.0 | 0.00 | 0.00 | 0.00 | 70 | 1011.7 |
| 20260506013553 | 70 | 205 | 1.0 | 5.0 | 0.00 | 0.00 | 0.00 | 69 | 1011.6 |
| 20260506013105 | 70 | 184 | 1.0 | 5.0 | 0.00 | 0.00 | 0.00 | 69 | 1011.6 |
| 20260506012551 | 70 | 222 | 1.0 | 4.0 | 0.00 | 0.00 | 0.00 | 68 | 1011.6 |
| 20260506012053 | 70 | 142 | 1.0 | 6.0 | 0.00 | 0.00 | 0.00 | 68 | 1011.4 |
| 20260506011625 | 71 | 148 | 1.0 | 6.0 | 0.00 | 0.00 | 0.00 | 67 | 1011.3 |
| 20260506011050 | 71 | 169 | 1.0 | 4.0 | 0.00 | 0.00 | 0.00 | 67 | 1011.2 |
| 20260506010551 | 71 | 170 | 0.0 | 3.0 | 0.00 | 0.00 | 0.00 | 66 | 1011.2 |
| 20260506010104 | 71 | 175 | 1.0 | 3.0 | 0.00 | 0.00 | 0.00 | 65 | 1011.2 |
| 20260506005554 | 71 | 157 | 1.0 | 3.0 | 0.00 | 0.00 | 0.00 | 65 | 1011.1 |
| 20260506005054 | 71 | 155 | 1.0 | 3.0 | 0.00 | 0.00 | 0.00 | 64 | 1011.1 |
| 20260506004632 | 72 | 0 | 0.0 | 3.0 | 0.00 | 0.00 | 0.00 | 64 | 1011.1 |
| 20260506004053 | 72 | 167 | 1.0 | 4.0 | 0.00 | 0.00 | 0.00 | 63 | 1011.0 |
| 20260506003553 | 72 | 165 | 1.0 | 4.0 | 0.00 | 0.00 | 0.00 | 62 | 1010.9 |
| 20260506003112 | 72 | 172 | 1.0 | 4.0 | 0.00 | 0.00 | 0.00 | 61 | 1010.8 |
| 20260506002550 | 73 | 173 | 1.0 | 4.0 | 0.00 | 0.00 | 0.00 | 61 | 1010.8 |
| 20260506002053 | 73 | 193 | 1.0 | 3.0 | 0.00 | 0.00 | 0.00 | 60 | 1010.8 |
| 20260506001559 | 73 | 160 | 1.0 | 2.0 | 0.00 | 0.00 | 0.00 | 60 | 1010.7 |
| 20260506001050 | 73 | 150 | 1.0 | 5.0 | 0.00 | 0.00 | 0.00 | 59 | 1010.7 |
| 20260506000554 | 74 | 77 | 0.0 | 5.0 | 0.00 | 0.00 | 0.00 | 59 | 1010.7 |
| 20260506000053 | 74 | 72 | 1.0 | 5.0 | 0.00 | 0.00 | 0.00 | 58 | 1010.6 |
| 20260505235551 | 74 | 227 | 1.0 | 3.0 | 0.00 | 0.00 | 0.00 | 58 | 1010.7 |
| 20260505235054 | 74 | 170 | 1.0 | 3.0 | 0.00 | 0.00 | 0.00 | 57 | 1010.6 |
| 20260505234617 | 75 | 164 | 1.0 | 4.0 | 0.00 | 0.00 | 0.00 | 55 | 1010.7 |
| 20260505234051 | 75 | 107 | 1.0 | 6.0 | 0.00 | 0.00 | 0.00 | 54 | 1010.7 |
| 20260505233553 | 75 | 163 | 1.0 | 6.0 | 0.00 | 0.00 | 0.00 | 54 | 1010.8 |
| 20260505233054 | 76 | 168 | 1.0 | 4.0 | 0.00 | 0.00 | 0.00 | 54 | 1010.6 |
| 20260505232553 | 76 | 166 | 0.0 | 3.0 | 0.00 | 0.00 | 0.00 | 54 | 1010.7 |
| 20260505232053 | 76 | 244 | 2.0 | 6.0 | 0.00 | 0.00 | 0.00 | 53 | 1010.7 |
| 20260505231556 | 76 | 96 | 1.0 | 6.0 | 0.00 | 0.00 | 0.00 | 53 | 1010.5 |
| 20260505231058 | 76 | 223 | 1.0 | 6.0 | 0.00 | 0.00 | 0.00 | 51 | 1010.5 |
| 20260505230553 | 76 | 158 | 2.0 | 5.0 | 0.00 | 0.00 | 0.00 | 51 | 1010.6 |
| 20260505230054 | 77 | 56 | 1.0 | 4.0 | 0.00 | 0.00 | 0.00 | 49 | 1010.7 |
| 20260505225554 | 77 | 202 | 1.0 | 6.0 | 0.00 | 0.00 | 0.00 | 49 | 1010.6 |
| 20260505225053 | 77 | 212 | 2.0 | 6.0 | 0.00 | 0.00 | 0.00 | 48 | 1010.4 |
| 20260505224557 | 78 | 162 | 1.0 | 4.0 | 0.00 | 0.00 | 0.00 | 47 | 1010.4 |
| 20260505224053 | 78 | 187 | 2.0 | 7.0 | 0.00 | 0.00 | 0.00 | 47 | 1010.5 |
| 20260505223554 | 78 | 134 | 1.0 | 7.0 | 0.00 | 0.00 | 0.00 | 46 | 1010.6 |
| 20260505223057 | 79 | 158 | 2.0 | 7.0 | 0.00 | 0.00 | 0.00 | 45 | 1010.6 |
| 20260505222554 | 79 | 65 | 2.0 | 5.0 | 0.00 | 0.00 | 0.00 | 45 | 1010.5 |
| 20260505222053 | 79 | 178 | 0.0 | 4.0 | 0.00 | 0.00 | 0.00 | 46 | 1010.5 |
| 20260505221555 | 80 | 37 | 0.0 | 11.0 | 0.00 | 0.00 | 0.00 | 46 | 1010.4 |
| 20260505221052 | 80 | 245 | 2.0 | 11.0 | 0.00 | 0.00 | 0.00 | 45 | 1010.4 |
| 20260505220556 | 80 | 231 | 1.0 | 4.0 | 0.00 | 0.00 | 0.00 | 45 | 1010.4 |
| 20260505220105 | 80 | 135 | 1.0 | 5.0 | 0.00 | 0.00 | 0.00 | 45 | 1010.3 |
| 20260505215553 | 80 | 175 | 2.0 | 6.0 | 0.00 | 0.00 | 0.00 | 45 | 1010.3 |
| 20260505215056 | 80 | 209 | 2.0 | 7.0 | 0.00 | 0.00 | 0.00 | 44 | 1010.3 |
| 20260505214605 | 80 | 149 | 2.0 | 7.0 | 0.00 | 0.00 | 0.00 | 45 | 1010.2 |
| 20260505214057 | 80 | 53 | 1.0 | 5.0 | 0.00 | 0.00 | 0.00 | 45 | 1010.1 |
| 20260505213555 | 80 | 239 | 2.0 | 6.0 | 0.00 | 0.00 | 0.00 | 44 | 1010.2 |
| 20260505213104 | 80 | 6 | 2.0 | 6.0 | 0.00 | 0.00 | 0.00 | 44 | 1010.0 |
| 20260505212553 | 81 | 291 | 2.0 | 5.0 | 0.00 | 0.00 | 0.00 | 44 | 1010.1 |
| 20260505212053 | 80 | 67 | 2.0 | 5.0 | 0.00 | 0.00 | 0.00 | 45 | 1010.0 |
| 20260505211601 | 80 | 142 | 2.0 | 6.0 | 0.00 | 0.00 | 0.00 | 44 | 1010.0 |
| 20260505211100 | 80 | 82 | 1.0 | 6.0 | 0.00 | 0.00 | 0.00 | 45 | 1010.0 |
| 20260505210553 | 80 | 28 | 1.0 | 6.0 | 0.00 | 0.00 | 0.00 | 44 | 1010.0 |
| 20260505210056 | 80 | 123 | 0.0 | 5.0 | 0.00 | 0.00 | 0.00 | 45 | 1009.9 |
| 20260505205556 | 80 | 120 | 1.0 | 5.0 | 0.00 | 0.00 | 0.00 | 44 | 1009.9 |
| 20260505205053 | 81 | 191 | 2.0 | 5.0 | 0.00 | 0.00 | 0.00 | 43 | 1010.0 |
| 20260505204555 | 81 | 182 | 2.0 | 6.0 | 0.00 | 0.00 | 0.00 | 44 | 1009.9 |
| 20260505204053 | 81 | 167 | 2.0 | 8.0 | 0.00 | 0.00 | 0.00 | 46 | 1010.1 |
| 20260505203555 | 81 | 146 | 2.0 | 8.0 | 0.00 | 0.00 | 0.00 | 45 | 1010.1 |
| 20260505203057 | 81 | 166 | 2.0 | 6.0 | 0.00 | 0.00 | 0.00 | 45 | 1010.1 |
| 20260505202554 | 81 | 31 | 1.0 | 8.0 | 0.00 | 0.00 | 0.00 | 44 | 1010.1 |
| 20260505202053 | 81 | 231 | 2.0 | 8.0 | 0.00 | 0.00 | 0.00 | 45 | 1010.2 |
| 20260505201602 | 81 | 135 | 3.0 | 10.0 | 0.00 | 0.00 | 0.00 | 45 | 1010.3 |
| 20260505201056 | 81 | 188 | 2.0 | 10.0 | 0.00 | 0.00 | 0.00 | 47 | 1010.2 |
| 20260505200555 | 81 | 75 | 3.0 | 8.0 | 0.00 | 0.00 | 0.00 | 46 | 1010.4 |
| 20260505195557 | 81 | 59 | 1.0 | 4.0 | 0.00 | 0.00 | 0.00 | 47 | 1010.3 |
| 20260505195053 | 81 | 342 | 1.0 | 4.0 | 0.00 | 0.00 | 0.00 | 46 | 1010.5 |
| 20260505194556 | 81 | 70 | 1.0 | 7.0 | 0.00 | 0.00 | 0.00 | 45 | 1010.7 |
| 20260505194053 | 81 | 155 | 2.0 | 7.0 | 0.00 | 0.00 | 0.00 | 44 | 1010.5 |
| 20260505193554 | 81 | 257 | 2.0 | 6.0 | 0.00 | 0.00 | 0.00 | 44 | 1010.7 |
| 20260505193058 | 81 | 338 | 2.0 | 8.0 | 0.00 | 0.00 | 0.00 | 45 | 1010.8 |
| 20260505192553 | 81 | 245 | 2.0 | 8.0 | 0.00 | 0.00 | 0.00 | 45 | 1010.9 |
| 20260505192053 | 81 | 113 | 1.0 | 7.0 | 0.00 | 0.00 | 0.00 | 47 | 1010.8 |
| 20260505191558 | 81 | 264 | 2.0 | 7.0 | 0.00 | 0.00 | 0.00 | 47 | 1011.0 |
| 20260505191053 | 81 | 345 | 2.0 | 7.0 | 0.00 | 0.00 | 0.00 | 46 | 1011.0 |
| 20260505190553 | 81 | 307 | 2.0 | 6.0 | 0.00 | 0.00 | 0.00 | 43 | 1011.1 |
| 20260505190054 | 81 | 23 | 1.0 | 8.0 | 0.00 | 0.00 | 0.00 | 47 | 1011.1 |
| 20260505185551 | 81 | 0 | 2.0 | 8.0 | 0.00 | 0.00 | 0.00 | 46 | 1011.2 |
| 20260505185054 | 81 | 243 | 2.0 | 6.0 | 0.00 | 0.00 | 0.00 | 45 | 1011.3 |
| 20260505184602 | 81 | 252 | 2.0 | 5.0 | 0.00 | 0.00 | 0.00 | 45 | 1011.4 |
| 20260505184054 | 81 | 240 | 0.0 | 3.0 | 0.00 | 0.00 | 0.00 | 44 | 1011.2 |
| 20260505183553 | 81 | 318 | 1.0 | 9.0 | 0.00 | 0.00 | 0.00 | 47 | 1011.2 |
| 20260505183054 | 81 | 295 | 2.0 | 9.0 | 0.00 | 0.00 | 0.00 | 46 | 1011.3 |
| 20260505182550 | 81 | 107 | 1.0 | 5.0 | 0.00 | 0.00 | 0.00 | 45 | 1011.4 |
| 20260505182056 | 81 | 319 | 1.0 | 5.0 | 0.00 | 0.00 | 0.00 | 48 | 1011.4 |
| 20260505181558 | 81 | 82 | 1.0 | 6.0 | 0.00 | 0.00 | 0.00 | 46 | 1011.5 |
| 20260505181053 | 81 | 6 | 1.0 | 6.0 | 0.00 | 0.00 | 0.00 | 47 | 1011.5 |
| 20260505180552 | 81 | 143 | 2.0 | 6.0 | 0.00 | 0.00 | 0.00 | 48 | 1011.5 |
| 20260505180059 | 81 | 202 | 2.0 | 6.0 | 0.00 | 0.00 | 0.00 | 49 | 1011.5 |
| 20260505175553 | 80 | 273 | 2.0 | 6.0 | 0.00 | 0.00 | 0.00 | 49 | 1011.6 |
| 20260505175058 | 80 | 310 | 1.0 | 4.0 | 0.00 | 0.00 | 0.00 | 50 | 1011.7 |
| 20260505174611 | 81 | 240 | 0.0 | 4.0 | 0.00 | 0.00 | 0.00 | 48 | 1011.7 |
| 20260505174051 | 80 | 266 | 1.0 | 6.0 | 0.00 | 0.00 | 0.00 | 51 | 1011.7 |
| 20260505173553 | 79 | 0 | 1.0 | 6.0 | 0.00 | 0.00 | 0.00 | 51 | 1011.8 |
| 20260505173056 | 79 | 340 | 1.0 | 5.0 | 0.00 | 0.00 | 0.00 | 50 | 1011.9 |
| 20260505172557 | 79 | 233 | 1.0 | 6.0 | 0.00 | 0.00 | 0.00 | 50 | 1012.0 |
| 20260505172051 | 79 | 39 | 1.0 | 6.0 | 0.00 | 0.00 | 0.00 | 51 | 1011.9 |
| 20260505171552 | 79 | 297 | 2.0 | 6.0 | 0.00 | 0.00 | 0.00 | 50 | 1012.0 |
| 20260505171050 | 79 | 266 | 1.0 | 5.0 | 0.00 | 0.00 | 0.00 | 51 | 1012.0 |
| 20260505170550 | 79 | 58 | 1.0 | 4.0 | 0.00 | 0.00 | 0.00 | 53 | 1012.0 |
| 20260505170134 | 79 | 276 | 1.0 | 4.0 | 0.00 | 0.00 | 0.00 | 51 | 1012.0 |
| 20260505165553 | 79 | 163 | 0.0 | 3.0 | 0.00 | 0.00 | 0.00 | 53 | 1012.1 |
| 20260505165053 | 78 | 329 | 1.0 | 4.0 | 0.00 | 0.00 | 0.00 | 53 | 1012.1 |
| 20260505164553 | 78 | 22 | 0.0 | 4.0 | 0.00 | 0.00 | 0.00 | 54 | 1012.1 |
| 20260505164055 | 78 | 0 | 1.0 | 4.0 | 0.00 | 0.00 | 0.00 | 53 | 1012.2 |
| 20260505163552 | 78 | 301 | 1.0 | 6.0 | 0.00 | 0.00 | 0.00 | 52 | 1012.3 |
| 20260505163055 | 78 | 317 | 2.0 | 6.0 | 0.00 | 0.00 | 0.00 | 53 | 1012.2 |
| 20260505162552 | 78 | 320 | 2.0 | 4.0 | 0.00 | 0.00 | 0.00 | 53 | 1012.2 |
| 20260505162050 | 78 | 172 | 1.0 | 3.0 | 0.00 | 0.00 | 0.00 | 54 | 1012.3 |
| 20260505161600 | 78 | 321 | 1.0 | 3.0 | 0.00 | 0.00 | 0.00 | 53 | 1012.3 |
| 20260505161054 | 78 | 58 | 1.0 | 4.0 | 0.00 | 0.00 | 0.00 | 52 | 1012.4 |
| 20260505160557 | 79 | 57 | 1.0 | 4.0 | 0.00 | 0.00 | 0.00 | 51 | 1012.4 |
| 20260505153058 | 78 | 345 | 2.0 | 5.0 | 0.00 | 0.00 | 0.00 | 54 | 1012.6 |
| 20260505152552 | 77 | 295 | 1.0 | 4.0 | 0.00 | 0.00 | 0.00 | 54 | 1012.7 |
| 20260505152052 | 78 | 304 | 1.0 | 3.0 | 0.00 | 0.00 | 0.00 | 54 | 1012.6 |
| 20260505151554 | 78 | 274 | 0.0 | 3.0 | 0.00 | 0.00 | 0.00 | 54 | 1012.5 |
| 20260505151050 | 78 | 333 | 1.0 | 3.0 | 0.00 | 0.00 | 0.00 | 53 | 1012.5 |
| 20260505150557 | 78 | 219 | 1.0 | 3.0 | 0.00 | 0.00 | 0.00 | 53 | 1012.5 |
| 20260505140553 | 73 | 304 | 1.0 | 4.0 | 0.00 | 0.00 | 0.00 | 60 | 1012.9 |